• In Deutschland
  • Länderverzeichnis
  • Für 7 Tage
  • Wassertemperatur
  • Satellitenkarten
  • Wetterkarte
  • Widgets
  • user-avatar
    Anmelden

    Stündliche Wetter Baraki Barak

    Heute, 22 Januar, Montag

    Zeit Temperatur Niederschläge Wind Luftdruck Luftfeuchtigkeit
    00:00 +2°C° 0 mm 2 m/S 593 mmHg 16%
    01:00 +2°C° 0 mm 2 m/S 593 mmHg 16%
    02:00 +2°C° 0 mm 2 m/S 593 mmHg 16%
    03:00 +2°C° 0 mm 2 m/S 593 mmHg 16%
    04:00 +1°C° 0 mm 2 m/S 592 mmHg 16%
    05:00 +1°C° 0 mm 2 m/S 592 mmHg 17%
    06:00 +1°C° 0 mm 2 m/S 592 mmHg 18%
    07:00 +1°C° 0 mm 2 m/S 592 mmHg 18%
    08:00 +1°C° 0 mm 2 m/S 592 mmHg 19%
    09:00 +2°C° 0 mm 2 m/S 593 mmHg 17%
    10:00 +3°C° 0 mm 3 m/S 593 mmHg 15%
    11:00 +5°C° 0 mm 3 m/S 594 mmHg 14%
    12:00 +5°C° 0 mm 3 m/S 593 mmHg 13%
    13:00 +7°C° 0 mm 3 m/S 593 mmHg 13%
    14:00 +7°C° 0 mm 3 m/S 593 mmHg 13%
    15:00 +7°C° 0 mm 3 m/S 593 mmHg 15%
    16:00 +5°C° 0 mm 3 m/S 592 mmHg 17%
    17:00 +5°C° 0 mm 3 m/S 592 mmHg 18%
    18:00 +4°C° 0 mm 3 m/S 592 mmHg 20%
    19:00 +4°C° 0 mm 2 m/S 592 mmHg 21%
    20:00 +3°C° 0 mm 2 m/S 592 mmHg 23%
    21:00 +2°C° 0 mm 2 m/S 592 mmHg 23%
    22:00 +2°C° 0 mm 2 m/S 592 mmHg 22%
    23:00 +1°C° 0 mm 2 m/S 592 mmHg 22%

    Morgen, 23 Januar, Dienstag

    Zeit Temperatur Niederschläge Wind Luftdruck Luftfeuchtigkeit
    00:00 +1°C° 0 mm 2 m/S 592 mmHg 21%
    01:00 +1°C° 0 mm 2 m/S 592 mmHg 20%
    02:00 -1°C° 0 mm 2 m/S 592 mmHg 19%
    03:00 -1°C° 0 mm 2 m/S 592 mmHg 19%
    04:00 -1°C° 0 mm 2 m/S 592 mmHg 19%
    05:00 +1°C° 0 mm 1 m/S 592 mmHg 19%
    06:00 0°C° 0 mm 1 m/S 592 mmHg 19%
    07:00 0°C° 0 mm 1 m/S 592 mmHg 19%
    08:00 0°C° 0 mm 1 m/S 593 mmHg 19%
    09:00 +2°C° 0 mm 1 m/S 593 mmHg 19%
    10:00 +3°C° 0 mm 1 m/S 594 mmHg 18%
    11:00 +5°C° 0 mm 1 m/S 594 mmHg 17%
    12:00 +5°C° 0 mm 1 m/S 594 mmHg 17%
    13:00 +6°C° 0 mm 1 m/S 593 mmHg 18%
    14:00 +7°C° 0 mm 1 m/S 593 mmHg 18%
    15:00 +7°C° 0 mm 1 m/S 593 mmHg 21%
    16:00 +6°C° 0 mm 1 m/S 593 mmHg 23%
    17:00 +6°C° 0 mm 1 m/S 593 mmHg 25%
    18:00 +5°C° 0 mm 1 m/S 593 mmHg 26%
    19:00 +4°C° 0 mm 1 m/S 593 mmHg 28%
    20:00 +3°C° 0 mm 1 m/S 593 mmHg 29%
    21:00 +2°C° 0 mm 2 m/S 593 mmHg 29%
    22:00 +2°C° 0 mm 2 m/S 593 mmHg 28%
    23:00 +1°C° 0 mm 2 m/S 593 mmHg 28%

    übermorgen, 24 Januar, Mittwoch

    Zeit Temperatur Niederschläge Wind Luftdruck Luftfeuchtigkeit
    00:00 +1°C° 0 mm 2 m/S 593 mmHg 27%
    01:00 +1°C° 0 mm 2 m/S 593 mmHg 27%
    02:00 +1°C° 0 mm 2 m/S 592 mmHg 26%
    03:00 +1°C° 0 mm 2 m/S 592 mmHg 26%
    04:00 -1°C° 0 mm 2 m/S 592 mmHg 26%
    05:00 -1°C° 0 mm 2 m/S 592 mmHg 26%
    06:00 -1°C° 0 mm 2 m/S 592 mmHg 26%
    07:00 -1°C° 0 mm 2 m/S 592 mmHg 25%
    08:00 -1°C° 0 mm 2 m/S 592 mmHg 25%
    09:00 +3°C° 0 mm 1 m/S 593 mmHg 22%
    10:00 +5°C° 0 mm 1 m/S 594 mmHg 20%
    11:00 +7°C° 0 mm 1 m/S 594 mmHg 17%
    12:00 +7°C° 0 mm 1 m/S 594 mmHg 17%
    13:00 +8°C° 0 mm 1 m/S 594 mmHg 17%
    14:00 +9°C° 0 mm 1 m/S 594 mmHg 17%
    15:00 +9°C° 0 mm 1 m/S 593 mmHg 20%
    16:00 +8°C° 0 mm 1 m/S 593 mmHg 23%
    17:00 +8°C° 0 mm 1 m/S 593 mmHg 26%
    18:00 +7°C° 0 mm 1 m/S 593 mmHg 28%
    19:00 +5°C° 0 mm 1 m/S 593 mmHg 30%
    20:00 +4°C° 0 mm 1 m/S 593 mmHg 32%
    21:00 +4°C° 0 mm 1 m/S 593 mmHg 33%
    22:00 +3°C° 0 mm 1 m/S 593 mmHg 33%
    23:00 +3°C° 0 mm 1 m/S 593 mmHg 34%

    25 Januar, Donnerstag

    Zeit Temperatur Niederschläge Wind Luftdruck Luftfeuchtigkeit
    00:00 +3°C° 0 mm 1 m/S 593 mmHg 34%
    01:00 +2°C° 0 mm 1 m/S 593 mmHg 34%
    02:00 +2°C° 0 mm 1 m/S 593 mmHg 34%
    03:00 +2°C° 0 mm 1 m/S 593 mmHg 35%
    04:00 +2°C° 0 mm 1 m/S 592 mmHg 35%
    05:00 +1°C° 0 mm 1 m/S 592 mmHg 35%
    06:00 +1°C° 0 mm 1 m/S 593 mmHg 35%
    07:00 -1°C° 0 mm 2 m/S 593 mmHg 35%
    08:00 -1°C° 0 mm 2 m/S 594 mmHg 35%
    09:00 +2°C° 0 mm 2 m/S 594 mmHg 32%
    10:00 +3°C° 0 mm 2 m/S 595 mmHg 29%
    11:00 +5°C° 0 mm 2 m/S 595 mmHg 26%
    12:00 +6°C° 0 mm 2 m/S 595 mmHg 26%
    13:00 +6°C° 0 mm 2 m/S 594 mmHg 26%
    14:00 +7°C° 0 mm 3 m/S 594 mmHg 25%
    15:00 +7°C° 0 mm 3 m/S 594 mmHg 27%
    16:00 +5°C° 0 mm 3 m/S 594 mmHg 29%
    17:00 +5°C° 0 mm 3 m/S 594 mmHg 30%
    18:00 +5°C° 0 mm 2 m/S 594 mmHg 34%
    19:00 +4°C° 0 mm 2 m/S 594 mmHg 37%
    20:00 +3°C° 0 mm 2 m/S 594 mmHg 41%
    21:00 +2°C° 0 mm 2 m/S 594 mmHg 42%
    22:00 +2°C° 0 mm 2 m/S 594 mmHg 43%
    23:00 +1°C° 0 mm 2 m/S 594 mmHg 44%

    26 Januar, Freitag

    Zeit Temperatur Niederschläge Wind Luftdruck Luftfeuchtigkeit
    00:00 +1°C° 0 mm 2 m/S 594 mmHg 44%
    01:00 +1°C° 0 mm 2 m/S 594 mmHg 45%
    02:00 -1°C° 0 mm 2 m/S 594 mmHg 46%
    03:00 -1°C° 0 mm 2 m/S 594 mmHg 46%
    04:00 -1°C° 0 mm 2 m/S 594 mmHg 46%
    05:00 -2°C° 0 mm 2 m/S 594 mmHg 46%
    06:00 -2°C° 0 mm 2 m/S 594 mmHg 45%
    07:00 -2°C° 0 mm 2 m/S 595 mmHg 45%
    08:00 -2°C° 0 mm 2 m/S 595 mmHg 44%
    09:00 +1°C° 0 mm 2 m/S 595 mmHg 39%
    10:00 +2°C° 0 mm 2 m/S 596 mmHg 34%
    11:00 +4°C° 0 mm 2 m/S 596 mmHg 29%
    12:00 +5°C° 0 mm 2 m/S 595 mmHg 27%
    13:00 +5°C° 0 mm 2 m/S 595 mmHg 24%
    14:00 +6°C° 0 mm 2 m/S 594 mmHg 22%
    15:00 +6°C° 0 mm 2 m/S 594 mmHg 23%
    16:00 +6°C° 0 mm 2 m/S 594 mmHg 24%
    17:00 +6°C° 0 mm 2 m/S 594 mmHg 26%
    18:00 +5°C° 0 mm 2 m/S 594 mmHg 28%
    19:00 +4°C° 0 mm 2 m/S 594 mmHg 30%
    20:00 +3°C° 0 mm 2 m/S 595 mmHg 32%
    21:00 +2°C° 0 mm 2 m/S 595 mmHg 32%
    22:00 +2°C° 0 mm 2 m/S 594 mmHg 33%
    23:00 +1°C° 0 mm 3 m/S 594 mmHg 34%

    27 Januar, Samstag

    Zeit Temperatur Niederschläge Wind Luftdruck Luftfeuchtigkeit
    00:00 0°C° 0 mm 3 m/S 594 mmHg 34%
    01:00 0°C° 0 mm 3 m/S 594 mmHg 35%
    02:00 -1°C° 0 mm 2 m/S 594 mmHg 36%
    03:00 -1°C° 0 mm 2 m/S 593 mmHg 35%
    04:00 -1°C° 0 mm 2 m/S 593 mmHg 35%
    05:00 -1°C° 0 mm 2 m/S 593 mmHg 34%
    06:00 -1°C° 0 mm 2 m/S 593 mmHg 33%
    07:00 -1°C° 0 mm 2 m/S 593 mmHg 32%
    08:00 -1°C° 0 mm 2 m/S 594 mmHg 31%
    09:00 +1°C° 0 mm 2 m/S 594 mmHg 28%
    10:00 +3°C° 0 mm 2 m/S 594 mmHg 24%
    11:00 +5°C° 0 mm 2 m/S 595 mmHg 21%
    12:00 +6°C° 0 mm 2 m/S 594 mmHg 20%
    13:00 +7°C° 0 mm 2 m/S 594 mmHg 19%
    14:00 +7°C° 0 mm 2 m/S 593 mmHg 18%
    15:00 +7°C° 0 mm 2 m/S 593 mmHg 20%
    16:00 +7°C° 0 mm 2 m/S 593 mmHg 22%
    17:00 +7°C° 0 mm 2 m/S 593 mmHg 23%
    18:00 +6°C° 0 mm 2 m/S 593 mmHg 26%
    19:00 +5°C° 0 mm 2 m/S 593 mmHg 29%
    20:00 +4°C° 0 mm 2 m/S 594 mmHg 31%
    21:00 +3°C° 0 mm 2 m/S 593 mmHg 32%
    22:00 +3°C° 0 mm 2 m/S 593 mmHg 33%
    23:00 +2°C° 0 mm 2 m/S 593 mmHg 34%
    Mehr zeigen